Location: El Para�so
(10.4896°N, 66.9245°W)
Time: 20:21:49
(UTC+00:00)

Milstar 3 - Pass Details

Date: 08 August 2020
Orbit: 1101 x 5144 km, 28.2° (Epoch: 25 September)

Event Time Altitude Azimuth Distance (km) Brightness Sun altitude
Rises 23:34:20 0° 278° (W) 3,983 7.6 -11.5°
Reaches altitude 10° 23:36:59 10° 269° (W) 3,156 6.4 -12.1°
Maximum altitude 23:43:48 36° 204° (SSW) 2,274 4.4 -13.7°
Enters shadow 23:54:20 11° 142° (SE) 4,896 5.6 -16.2°
